Lacon, IL

9:48 AM CST on December 14, 2019 (GMT -0600)
Lacon

Weather History for KC75 - November, 2019

Change the Weather History Date:

Friday, November 15, 2019

  Actual Average (WUND) Record (WUND)
Temperature  
Mean Temperature 28 °F -  
Max Temperature 42 °F - - (-1)
Min Temperature 14 °F - - (-1)
Degree Days  
Heating Degree Days 37    
Moisture  
Dew Point 22 °F    
Average Humidity 81    
Maximum Humidity 96    
Minimum Humidity 61    
Precipitation  
Precipitation 0.00 in - - ()
Sea Level Pressure  
Sea Level Pressure 30.37 in    
Wind  
Wind Speed 1 mph (WNW)    
Max Wind Speed 7 mph    
Max Gust Speed -    
Visibility 8 miles    
Events      
Averages and records for this station are not official NWS values.
T = Trace of Precipitation, MM = Missing Value Source: NWS Daily Summary

Daily Weather History Graph

Daily Weather History Graph

Search for Another Location

Airport or City:

Astronomy

Nov. 15, 2019 Rise Set
Actual Time 6:44 AM CST 4:38 PM CST
Civil Twilight 6:15 AM CST 5:08 PM CST
Nautical Twilight 5:41 AM CST 5:41 PM CST
Astronomical Twilight 5:09 AM CST 6:13 PM CST
Moon 7:13 PM CST (11/15) 9:41 AM CST (11/15)
Length of Visible Light 10h 53m
Length of Day
9h 54m
Waning Gibbous, 90% of the Moon is Illuminated
Nov 15
Waning Gibbous
Nov 19
Last Quarter
Nov 26
New
Dec 4
First Quarter
Dec 11
Full

Hourly Weather History & Observations

Time (CST) Temp. Windchill Dew Point Humidity Pressure Visibility Wind Dir Wind Speed Gust Speed Precip Events Conditions
12:15 AM 19.6 °F - 15.4 °F 84% 30.35 in 10.0 mi Calm Calm - N/A   Clear
12:35 AM 18.1 °F - 15.6 °F 90% 30.36 in 10.0 mi Calm Calm - N/A   Clear
12:55 AM 14.5 °F - 11.7 °F 88% 30.36 in 7.0 mi Calm Calm - N/A   Clear
1:15 AM 16.2 °F - 14.2 °F 92% 30.35 in 7.0 mi Calm Calm - N/A   Clear
1:35 AM 16.9 °F - 14.5 °F 91% 30.36 in 10.0 mi Calm Calm - N/A   Clear
1:55 AM 14.9 °F - 12.9 °F 92% 30.35 in 7.0 mi Calm Calm - N/A   Clear
2:15 AM 17.4 °F - 15.3 °F 91% 30.36 in 7.0 mi Calm Calm - N/A   Clear
2:35 AM 15.4 °F - 13.1 °F 90% 30.36 in 7.0 mi Calm Calm - N/A   Clear
2:55 AM 17.4 °F - 15.4 °F 92% 30.36 in 7.0 mi Calm Calm - N/A   Clear
3:15 AM 18.3 °F - 16.3 °F 92% 30.35 in 7.0 mi Calm Calm - N/A   Clear
3:35 AM 18.3 °F - 16.0 °F 91% 30.36 in 7.0 mi Calm Calm - N/A   Clear
3:55 AM 17.6 °F - 15.3 °F 91% 30.36 in 7.0 mi Calm Calm - N/A   Clear
4:15 AM 18.3 °F - 16.2 °F 91% 30.36 in 7.0 mi Calm Calm - N/A   Clear
4:35 AM 19.9 °F - 17.4 °F 90% 30.36 in 7.0 mi Calm Calm - N/A   Clear
5:15 AM 18.1 °F 12.9 °F 15.3 °F 88% 30.36 in 7.0 mi SSW 3.5 mph - N/A   Clear
5:35 AM 19.2 °F - 16.5 °F 89% 30.37 in 10.0 mi Calm Calm - N/A   Clear
5:55 AM 20.1 °F - 17.2 °F 89% 30.36 in 10.0 mi Calm Calm - N/A   Clear
6:15 AM 20.3 °F - 17.4 °F 89% 30.37 in 10.0 mi Calm Calm - N/A   Clear
6:35 AM 20.7 °F - 17.6 °F 88% 30.37 in 7.0 mi Calm Calm - N/A   Clear
6:55 AM 20.1 °F - 17.2 °F 89% 30.37 in 7.0 mi Calm Calm - N/A   Clear
7:15 AM 20.3 °F 15.4 °F 17.6 °F 89% 30.37 in 7.0 mi SSW 3.5 mph - N/A   Clear
7:35 AM 22.5 °F - 18.5 °F 85% 30.37 in 7.0 mi Calm Calm - N/A   Clear
7:55 AM 23.9 °F 19.5 °F 19.4 °F 83% 30.37 in 7.0 mi SW 3.5 mph - N/A   Clear
8:15 AM 25.5 °F 21.3 °F 19.8 °F 79% 30.37 in 10.0 mi WSW 3.5 mph - N/A   Clear
8:35 AM 27.3 °F 22.0 °F 20.1 °F 74% 30.38 in 10.0 mi SW 4.6 mph - N/A   Clear
8:50 AM 28.2 °F 22.0 °F 20.5 °F 73% 30.38 in 10.0 mi WSW 5.8 mph - N/A   Clear
10:20 AM 34.7 °F 30.6 °F 22.8 °F 62% 30.38 in - WNW 4.6 mph - N/A   Unknown
10:35 AM 34.2 °F 29.0 °F 23.5 °F 65% 30.39 in 10.0 mi WNW 5.8 mph - N/A   Unknown
10:55 AM 34.9 °F 30.8 °F 24.4 °F 66% 30.39 in 10.0 mi NW 4.6 mph - N/A   Clear
11:10 AM 34.9 °F 30.8 °F 24.3 °F 65% 30.38 in 10.0 mi NW 4.6 mph - N/A   Clear
11:35 AM 36.1 °F 33.5 °F 25.5 °F 65% 30.38 in 10.0 mi WNW 3.5 mph - N/A   Clear
11:55 AM 36.9 °F 34.3 °F 25.9 °F 64% 30.38 in 10.0 mi WNW 3.5 mph - N/A   Clear
12:15 PM 38.1 °F 32.9 °F 27.0 °F 64% 30.37 in 10.0 mi NNW 6.9 mph - N/A   Clear
12:35 PM 39.2 °F 35.9 °F 27.5 °F 63% 30.37 in 10.0 mi NW 4.6 mph - N/A   Clear
12:55 PM 39.9 °F 37.8 °F 28.2 °F 63% 30.36 in 10.0 mi NW 3.5 mph - N/A   Clear
1:15 PM 40.6 °F - 28.2 °F 61% 30.36 in 10.0 mi Calm Calm - N/A   Clear
1:35 PM 41.5 °F 37.8 °F 29.1 °F 61% 30.36 in 10.0 mi NW 5.8 mph - N/A   Clear
1:55 PM 41.7 °F 38.0 °F 29.3 °F 61% 30.35 in 10.0 mi NW 5.8 mph - N/A   Clear
2:35 PM 41.9 °F - 29.8 °F 62% 30.35 in 10.0 mi Calm Calm - N/A   Clear
2:55 PM 42.1 °F - 29.7 °F 61% 30.35 in 10.0 mi Calm Calm - N/A   Clear
3:15 PM 41.7 °F - 29.8 °F 63% 30.35 in 10.0 mi Calm Calm - N/A   Clear
3:30 PM 41.2 °F - 30.0 °F 65% 30.36 in 10.0 mi Calm Calm - N/A   Clear
3:55 PM 41.0 °F - 29.8 °F 64% 30.36 in 10.0 mi Calm Calm - N/A   Clear
4:15 PM 40.3 °F - 29.3 °F 65% 30.36 in 10.0 mi Calm Calm - N/A   Clear
4:35 PM 36.9 °F - 29.3 °F 74% 30.36 in 10.0 mi Calm Calm - N/A   Clear
4:55 PM 34.0 °F - 28.4 °F 80% 30.36 in 10.0 mi Calm Calm - N/A   Clear
5:15 PM 32.0 °F - 27.5 °F 83% 30.36 in 10.0 mi Calm Calm - N/A   Clear
5:35 PM 31.6 °F - 27.5 °F 85% 30.36 in 10.0 mi Calm Calm - N/A   Clear
5:55 PM 32.0 °F - 27.7 °F 84% 30.37 in 10.0 mi Calm Calm - N/A   Clear
6:55 PM 28.2 °F - 25.2 °F 88% 30.38 in 10.0 mi Calm Calm - N/A   Clear
7:15 PM 27.9 °F - 24.8 °F 88% 30.38 in 10.0 mi Calm Calm - N/A   Clear
7:55 PM 28.8 °F - 26.4 °F 91% 30.38 in 10.0 mi Calm Calm - N/A   Clear
8:15 PM 29.7 °F - 26.8 °F 89% 30.39 in 7.0 mi Calm Calm - N/A   Clear
8:35 PM 28.8 °F - 26.1 °F 90% 30.39 in 7.0 mi Calm Calm - N/A   Clear
8:55 PM 28.0 °F - 25.5 °F 90% 30.39 in 7.0 mi Calm Calm - N/A   Clear
9:15 PM 28.0 °F - 26.2 °F 93% 30.39 in 7.0 mi Calm Calm - N/A   Clear
9:35 PM 25.2 °F - 23.4 °F 93% 30.40 in 5.0 mi Calm Calm - N/A   Clear
10:35 PM 24.3 °F - 23.2 °F 96% 30.40 in 5.0 mi Calm Calm - N/A   Clear
10:55 PM 25.2 °F - 23.9 °F 95% 30.40 in 5.0 mi Calm Calm - N/A   Clear
11:15 PM 23.5 °F - 22.3 °F 95% 30.40 in 5.0 mi Calm Calm - N/A   Clear
11:35 PM 24.3 °F 19.9 °F 22.8 °F 94% 30.40 in 5.0 mi ENE 3.5 mph - N/A   Clear
11:55 PM 24.4 °F 17.5 °F 23.0 °F 94% 30.40 in 5.0 mi ENE 5.8 mph - N/A   Clear